BOX170 EDDP-EDDF

Flight info

Callsign BOX170
Flight time N/A
Altitude 22000
Route ORTAG5N ORTAG T177 ODIPI T157 KERAX KERAX5D
Aircraft B77L/H-SDE1E2E3FGHIJ2J3J4J5M1RWXY/LB1D1

Departure

Time 2026-05-05 02:36
Airport Leipzig/Halle Airport (EDDP)

Arrival

Time N/A
Airport Frankfurt Main Airport (EDDF)
Time Latitude Longitude Altitude Speed Heading
2026-05-05 02:01 51.41007 12.24813 485 ft 0 kts 85°
2026-05-05 02:26 51.41007 12.24805 485 ft 2 kts 85°
2026-05-05 02:26 51.41006 12.24781 485 ft 2 kts 85°
2026-05-05 02:26 51.41005 12.24757 485 ft 2 kts 85°
2026-05-05 02:26 51.41004 12.24740 485 ft 0 kts 85°
2026-05-05 02:27 51.41002 12.24718 485 ft 2 kts 69°
2026-05-05 02:27 51.40995 12.24698 485 ft 2 kts 48°
2026-05-05 02:27 51.40984 12.24682 485 ft 2 kts 30°
2026-05-05 02:27 51.40969 12.24672 485 ft 2 kts 10°
2026-05-05 02:28 51.40959 12.24671 485 ft 0 kts 356°
2026-05-05 02:28 51.40955 12.24671 485 ft 0 kts 355°
2026-05-05 02:32 51.40964 12.24669 485 ft 4 kts 351°
2026-05-05 02:32 51.41035 12.24656 485 ft 15 kts 353°
2026-05-05 02:33 51.41144 12.24599 485 ft 16 kts 15°
2026-05-05 02:33 51.41192 12.24783 485 ft 23 kts 88°
2026-05-05 02:33 51.41206 12.25067 485 ft 25 kts 84°
2026-05-05 02:33 51.41217 12.25342 485 ft 23 kts 86°
2026-05-05 02:34 51.41242 12.25583 485 ft 20 kts 49°
2026-05-05 02:34 51.41265 12.25607 485 ft 0 kts 17°
2026-05-05 02:34 51.41265 12.25608 485 ft 0 kts 17°
2026-05-05 02:34 51.41278 12.25611 485 ft 4 kts
2026-05-05 02:35 51.41325 12.25604 485 ft 9 kts 341°
2026-05-05 02:35 51.41380 12.25513 485 ft 12 kts 291°
2026-05-05 02:35 51.41389 12.25379 485 ft 11 kts 268°
2026-05-05 02:35 51.41381 12.25162 485 ft 33 kts 264°
2026-05-05 02:36 51.41345 12.24399 485 ft 103 kts 266°
2026-05-05 02:36 51.41275 12.22894 487 ft 165 kts 266°
2026-05-05 02:36 51.41169 12.20892 903 ft 182 kts 266°
2026-05-05 02:36 51.41079 12.18857 1600 ft 188 kts 267°
2026-05-05 02:37 51.40985 12.16740 2080 ft 199 kts 267°
2026-05-05 02:37 51.40878 12.14463 2495 ft 213 kts 267°
2026-05-05 02:37 51.40761 12.11999 2929 ft 228 kts 267°
2026-05-05 02:37 51.40635 12.09368 3387 ft 243 kts 267°
2026-05-05 02:38 51.40504 12.06630 3983 ft 253 kts 266°
2026-05-05 02:38 51.40362 12.03777 4621 ft 262 kts 263°
2026-05-05 02:38 51.39807 12.01047 5331 ft 265 kts 239°
2026-05-05 02:38 51.38805 11.98584 6126 ft 267 kts 235°
2026-05-05 02:39 51.37756 11.96127 6978 ft 266 kts 235°
2026-05-05 02:39 51.36720 11.93706 7724 ft 268 kts 235°
2026-05-05 02:39 51.35652 11.91212 8418 ft 271 kts 235°
2026-05-05 02:39 51.34584 11.88721 9113 ft 274 kts 235°
2026-05-05 02:40 51.33510 11.86221 9803 ft 275 kts 235°
2026-05-05 02:40 51.32410 11.83660 10325 ft 284 kts 235°
2026-05-05 02:40 51.31230 11.80917 10627 ft 302 kts 235°
2026-05-05 02:40 51.29997 11.78054 10984 ft 318 kts 235°
2026-05-05 02:41 51.28702 11.75050 11354 ft 334 kts 235°
2026-05-05 02:41 51.27366 11.71955 11852 ft 346 kts 235°
2026-05-05 02:41 51.25995 11.68781 12572 ft 352 kts 235°
2026-05-05 02:41 51.24587 11.65528 13454 ft 355 kts 235°
2026-05-05 02:42 51.23185 11.62291 14329 ft 359 kts 235°
2026-05-05 02:42 51.21767 11.59022 15286 ft 362 kts 234°
2026-05-05 02:42 51.20332 11.55715 16304 ft 363 kts 234°
2026-05-05 02:42 51.18898 11.52418 17210 ft 366 kts 234°
2026-05-05 02:43 51.17435 11.49060 18029 ft 372 kts 234°
2026-05-05 02:43 51.15967 11.45691 18857 ft 376 kts 234°
2026-05-05 02:43 51.14472 11.42267 19708 ft 380 kts 234°
2026-05-05 02:43 51.12947 11.38778 20520 ft 384 kts 234°
2026-05-05 02:44 51.11424 11.35294 21372 ft 385 kts 234°
2026-05-05 02:44 51.09884 11.31780 21840 ft 387 kts 233°
2026-05-05 02:44 51.08345 11.28272 21903 ft 385 kts 234°
2026-05-05 02:44 51.06807 11.24772 21906 ft 382 kts 233°
2026-05-05 02:45 51.05287 11.21318 21910 ft 381 kts 233°
2026-05-05 02:45 51.03760 11.17852 21913 ft 382 kts 233°
2026-05-05 02:45 51.02232 11.14388 21912 ft 380 kts 234°
2026-05-05 02:45 51.00717 11.10958 21915 ft 380 kts 234°
2026-05-05 02:46 50.99191 11.07507 21918 ft 380 kts 234°
2026-05-05 02:46 50.97653 11.04035 21912 ft 380 kts 234°
2026-05-05 02:46 50.96119 11.00577 21918 ft 382 kts 234°
2026-05-05 02:46 50.94581 10.97114 21916 ft 381 kts 234°
2026-05-05 02:47 50.93037 10.93642 21917 ft 381 kts 234°
2026-05-05 02:47 50.91518 10.90231 21913 ft 381 kts 234°
2026-05-05 02:47 50.89980 10.86780 21913 ft 381 kts 234°
2026-05-05 02:47 50.88473 10.83406 21918 ft 382 kts 234°
2026-05-05 02:48 50.86933 10.79959 21914 ft 382 kts 234°
2026-05-05 02:48 50.85390 10.76513 21907 ft 382 kts 234°
2026-05-05 02:48 50.83851 10.73079 21912 ft 382 kts 234°
2026-05-05 02:48 50.82301 10.69626 21909 ft 382 kts 234°
2026-05-05 02:49 50.80771 10.66221 21909 ft 381 kts 234°
2026-05-05 02:49 50.79222 10.62778 21907 ft 382 kts 234°
2026-05-05 02:49 50.77697 10.59395 21898 ft 382 kts 234°
2026-05-05 02:49 50.76150 10.55964 21907 ft 382 kts 234°
2026-05-05 02:50 50.74611 10.52559 21900 ft 382 kts 234°
2026-05-05 02:50 50.73101 10.49221 21903 ft 382 kts 234°
2026-05-05 02:50 50.71589 10.45882 21898 ft 381 kts 234°
2026-05-05 02:50 50.70051 10.42490 21899 ft 382 kts 234°
2026-05-05 02:51 50.68507 10.39089 21813 ft 377 kts 234°
2026-05-05 02:51 50.66986 10.35744 21308 ft 374 kts 234°
2026-05-05 02:51 50.65491 10.32458 20912 ft 369 kts 233°
2026-05-05 02:51 50.64005 10.29198 20498 ft 364 kts 233°
2026-05-05 02:52 50.62524 10.25954 20075 ft 369 kts 233°
2026-05-05 02:52 50.61025 10.22673 19918 ft 373 kts 233°
2026-05-05 02:52 50.59483 10.19302 19914 ft 374 kts 233°
2026-05-05 02:52 50.57984 10.16030 19909 ft 375 kts 233°
2026-05-05 02:53 50.56455 10.12696 19913 ft 374 kts 233°
2026-05-05 02:53 50.54921 10.09364 19911 ft 374 kts 233°
2026-05-05 02:53 50.53502 10.05901 19915 ft 380 kts 241°
2026-05-05 02:53 50.52389 10.02083 19917 ft 382 kts 245°
2026-05-05 02:54 50.51328 9.98202 19918 ft 382 kts 245°
2026-05-05 02:54 50.50288 9.94402 19914 ft 382 kts 245°
2026-05-05 02:54 50.49242 9.90587 19914 ft 381 kts 245°
2026-05-05 02:54 50.48180 9.86719 19922 ft 382 kts 245°
2026-05-05 02:55 50.47128 9.82892 19908 ft 383 kts 245°
2026-05-05 02:55 50.46083 9.79076 19908 ft 383 kts 246°
2026-05-05 02:55 50.45018 9.75211 19907 ft 383 kts 245°
2026-05-05 02:55 50.43959 9.71381 19915 ft 384 kts 245°
2026-05-05 02:56 50.42899 9.67553 19913 ft 384 kts 245°
2026-05-05 02:56 50.41826 9.63680 19906 ft 383 kts 245°
2026-05-05 02:56 50.40760 9.59845 19903 ft 383 kts 245°
2026-05-05 02:56 50.39694 9.56012 19903 ft 383 kts 245°
2026-05-05 02:57 50.38628 9.52187 19903 ft 383 kts 245°
2026-05-05 02:57 50.37564 9.48375 19903 ft 382 kts 245°
2026-05-05 02:57 50.36498 9.44563 19901 ft 381 kts 245°
2026-05-05 02:57 50.35415 9.40697 19903 ft 390 kts 245°
2026-05-05 02:58 50.34330 9.36828 19902 ft 390 kts 245°
2026-05-05 02:58 50.33236 9.32936 19907 ft 391 kts 245°
2026-05-05 02:58 50.32121 9.28973 19910 ft 391 kts 245°
2026-05-05 02:58 50.31068 9.25236 19912 ft 390 kts 245°
2026-05-05 02:59 50.29974 9.21362 19905 ft 390 kts 245°
2026-05-05 02:59 50.28880 9.17493 19908 ft 391 kts 245°
2026-05-05 02:59 50.27765 9.13557 19909 ft 391 kts 245°
2026-05-05 02:59 50.26676 9.09668 19903 ft 392 kts 247°
2026-05-05 03:00 50.25743 9.05695 19911 ft 393 kts 249°
2026-05-05 03:00 50.24831 9.01689 19886 ft 388 kts 249°
2026-05-05 03:00 50.23964 8.97911 19636 ft 379 kts 249°
2026-05-05 03:00 50.23070 8.94041 19178 ft 375 kts 249°
2026-05-05 03:01 50.22196 8.90280 18631 ft 374 kts 249°
2026-05-05 03:01 50.21504 8.87315 18204 ft 372 kts 249°
2026-05-05 03:01 50.20625 8.83564 17710 ft 370 kts 249°
2026-05-05 03:01 50.19747 8.79830 17263 ft 366 kts 249°
2026-05-05 03:02 50.18871 8.76113 16795 ft 363 kts 249°
2026-05-05 03:02 50.18000 8.72428 16272 ft 361 kts 249°
2026-05-05 03:02 50.17123 8.68727 15731 ft 360 kts 249°
2026-05-05 03:02 50.16267 8.65119 15220 ft 358 kts 249°
2026-05-05 03:03 50.15398 8.61466 14759 ft 355 kts 249°
2026-05-05 03:03 50.14552 8.57914 14304 ft 352 kts 249°
2026-05-05 03:03 50.13691 8.54304 13802 ft 350 kts 249°
2026-05-05 03:03 50.12844 8.50763 13290 ft 349 kts 249°
2026-05-05 03:04 50.12006 8.47260 12811 ft 347 kts 249°
2026-05-05 03:04 50.11163 8.43744 12315 ft 346 kts 249°
2026-05-05 03:04 50.10327 8.40280 11842 ft 344 kts 248°
2026-05-05 03:04 50.09488 8.36808 11378 ft 342 kts 248°
2026-05-05 03:05 50.08657 8.33375 10899 ft 340 kts 248°
2026-05-05 03:05 50.07829 8.29961 10420 ft 339 kts 247°
2026-05-05 03:05 50.06993 8.26519 9960 ft 336 kts 247°
2026-05-05 03:05 50.06169 8.23130 9464 ft 330 kts 247°
2026-05-05 03:06 50.05378 8.19878 9120 ft 315 kts 247°
2026-05-05 03:06 50.04615 8.16748 8838 ft 299 kts 247°
2026-05-05 03:06 50.03896 8.13802 8653 ft 285 kts 247°
2026-05-05 03:06 50.03210 8.10999 8550 ft 275 kts 247°
2026-05-05 03:07 50.02536 8.08244 8258 ft 272 kts 247°
2026-05-05 03:07 50.01862 8.05480 7899 ft 272 kts 247°
2026-05-05 03:07 50.01198 8.02761 7547 ft 272 kts 247°
2026-05-05 03:07 50.00532 8.00038 7242 ft 269 kts 247°
2026-05-05 03:08 49.99873 7.97345 6922 ft 268 kts 247°
2026-05-05 03:08 49.99220 7.94679 6783 ft 258 kts 247°
2026-05-05 03:08 49.98597 7.92140 6748 ft 246 kts 247°
2026-05-05 03:08 49.97989 7.89667 6483 ft 244 kts 247°
2026-05-05 03:09 49.97371 7.87199 6123 ft 244 kts 243°
2026-05-05 03:09 49.96381 7.85078 5715 ft 243 kts 219°
2026-05-05 03:09 49.94938 7.83791 5333 ft 241 kts 196°
2026-05-05 03:09 49.93310 7.83526 5021 ft 239 kts 173°
2026-05-05 03:10 49.91710 7.84189 4991 ft 241 kts 159°
2026-05-05 03:10 49.90304 7.85581 4975 ft 240 kts 135°
2026-05-05 03:10 49.89398 7.87777 4983 ft 243 kts 110°
2026-05-05 03:10 49.89170 7.90377 4991 ft 247 kts 85°
2026-05-05 03:11 49.89671 7.92945 4997 ft 249 kts 65°
2026-05-05 03:11 49.90434 7.95362 4996 ft 253 kts 66°
2026-05-05 03:11 49.91096 7.97888 4996 ft 253 kts 71°
2026-05-05 03:11 49.91715 8.00448 4995 ft 253 kts 71°
2026-05-05 03:12 49.92335 8.03007 4997 ft 253 kts 71°
2026-05-05 03:12 49.92959 8.05566 4982 ft 252 kts 71°
2026-05-05 03:12 49.93579 8.08094 4983 ft 251 kts 71°
2026-05-05 03:12 49.94202 8.10628 4986 ft 252 kts 71°
2026-05-05 03:13 49.94819 8.13137 4988 ft 251 kts 71°
2026-05-05 03:13 49.95435 8.15648 4968 ft 252 kts 71°
2026-05-05 03:13 49.96066 8.18231 4632 ft 256 kts 71°
2026-05-05 03:13 49.96696 8.20813 4314 ft 255 kts 70°
2026-05-05 03:14 49.97327 8.23394 3975 ft 254 kts 70°
2026-05-05 03:14 49.97949 8.25946 3640 ft 253 kts 70°
2026-05-05 03:14 49.98562 8.28459 3280 ft 247 kts 70°
2026-05-05 03:14 49.99166 8.30931 2969 ft 237 kts 70°
2026-05-05 03:15 49.99728 8.33236 2659 ft 225 kts 70°
2026-05-05 03:15 50.00262 8.35436 2366 ft 207 kts 70°
2026-05-05 03:15 50.00741 8.37419 2106 ft 187 kts 69°
2026-05-05 03:15 50.01179 8.39233 1870 ft 170 kts 69°
2026-05-05 03:16 50.01578 8.40889 1644 ft 158 kts 69°
2026-05-05 03:16 50.01958 8.42466 1426 ft 153 kts 69°
2026-05-05 03:16 50.02335 8.44019 1207 ft 151 kts 68°
2026-05-05 03:16 50.02713 8.45535 995 ft 151 kts 68°
2026-05-05 03:17 50.03064 8.47056 772 ft 149 kts 68°
2026-05-05 03:17 50.03435 8.48574 553 ft 148 kts 68°
2026-05-05 03:17 50.03792 8.50066 379 ft 144 kts 69°
2026-05-05 03:17 50.04086 8.51310 378 ft 109 kts 69°
2026-05-05 03:18 50.04422 8.52706 519 ft 164 kts 68°
2026-05-05 03:18 50.04821 8.54374 1336 ft 174 kts 66°
2026-05-05 03:18 50.05428 8.56065 1704 ft 183 kts 65°
2026-05-05 03:18 50.05943 8.57872 1895 ft 178 kts 63°
2026-05-05 03:19 50.07532 8.60743 2135 ft 171 kts 30°